Location: Boiro
(42.6475°N, 8.8834°W)
Time: 00:17:33
(UTC+01:00)

Transit 2A - Pass Details

Date: 02 December 2021
Orbit: 591 x 967 km, 66.7° (Epoch: 18 January)

Event Time Altitude Azimuth Distance (km) Brightness Sun altitude
Rises 11:10:59 0° 327° (NNW) 3,662 8.9 18.3°
Reaches altitude 10° 11:13:35 10° 325° (NW) 2,712 8.3 18.6°
Maximum altitude 11:19:56 69° 244° (WSW) 1,013 6.9 19.2°
Drops below altitude 10° 11:25:58 10° 162° (SSE) 2,577 10.7 19.8°
Sets 11:28:24 0° 160° (SSE) 3,468 10.9 20.0°
